AFL122 UNKL-UACC

Flight info

Callsign AFL122
Flight time 2h 26m
Altitude 36000
Route ROVNO R823 BAKMI B156 NOSPI G121 AMRAD A366 LAGMO L988 ABELI Z746 EDANO
Aircraft A321/M-VGD/A

Departure

Time 2026-05-08 16:07
Airport Krasnoyarsk International Airport (UNKL)

Arrival

Time 2026-05-08 18:34
Airport Nursultan Nazarbayev International Airport (UACC)
Time Latitude Longitude Altitude Speed Heading
2026-05-08 15:35 56.18087 92.47463 919 ft 0 kts 22°
2026-05-08 15:57 56.18089 92.47464 919 ft 1 kts 22°
2026-05-08 15:57 56.18097 92.47471 919 ft 1 kts 22°
2026-05-08 15:57 56.18115 92.47491 919 ft 4 kts 42°
2026-05-08 15:57 56.18123 92.47553 918 ft 6 kts 106°
2026-05-08 15:58 56.18104 92.47643 919 ft 9 kts 113°
2026-05-08 15:58 56.18074 92.47767 918 ft 12 kts 114°
2026-05-08 15:58 56.18039 92.47907 918 ft 7 kts 113°
2026-05-08 15:58 56.18005 92.47978 918 ft 7 kts 164°
2026-05-08 15:59 56.17947 92.47949 917 ft 10 kts 200°
2026-05-08 15:59 56.17876 92.47916 916 ft 11 kts 168°
2026-05-08 15:59 56.17827 92.48028 914 ft 13 kts 112°
2026-05-08 15:59 56.17787 92.48201 913 ft 16 kts 112°
2026-05-08 16:00 56.17735 92.48422 908 ft 22 kts 113°
2026-05-08 16:00 56.17666 92.48710 904 ft 26 kts 112°
2026-05-08 16:00 56.17586 92.49045 904 ft 26 kts 117°
2026-05-08 16:00 56.17517 92.49335 908 ft 24 kts 113°
2026-05-08 16:01 56.17445 92.49637 907 ft 23 kts 113°
2026-05-08 16:01 56.17374 92.49931 894 ft 27 kts 114°
2026-05-08 16:01 56.17309 92.50204 904 ft 22 kts 112°
2026-05-08 16:01 56.17263 92.50396 927 ft 11 kts 112°
2026-05-08 16:02 56.17220 92.50581 928 ft 20 kts 112°
2026-05-08 16:02 56.17149 92.50878 923 ft 30 kts 112°
2026-05-08 16:02 56.17059 92.51258 926 ft 35 kts 113°
2026-05-08 16:02 56.16961 92.51666 935 ft 37 kts 112°
2026-05-08 16:03 56.16874 92.52001 918 ft 19 kts 139°
2026-05-08 16:03 56.16814 92.52026 926 ft 2 kts 169°
2026-05-08 16:03 56.16813 92.52026 926 ft 0 kts 169°
2026-05-08 16:05 56.16816 92.52025 926 ft 0 kts 169°
2026-05-08 16:05 56.16750 92.52042 933 ft 11 kts 172°
2026-05-08 16:05 56.16675 92.52023 934 ft 10 kts 229°
2026-05-08 16:06 56.16674 92.51919 934 ft 0 kts 292°
2026-05-08 16:06 56.16674 92.51918 934 ft 0 kts 292°
2026-05-08 16:06 56.16678 92.51904 934 ft 4 kts 292°
2026-05-08 16:07 56.16788 92.51438 932 ft 78 kts 292°
2026-05-08 16:07 56.17089 92.50179 923 ft 139 kts 292°
2026-05-08 16:07 56.17529 92.48315 956 ft 183 kts 293°
2026-05-08 16:07 56.18031 92.46282 1657 ft 177 kts 293°
2026-05-08 16:08 56.18539 92.44312 2278 ft 173 kts 294°
2026-05-08 16:08 56.19029 92.42364 2757 ft 170 kts 296°
2026-05-08 16:08 56.19523 92.40440 3174 ft 171 kts 296°
2026-05-08 16:08 56.20017 92.38525 3583 ft 172 kts 296°
2026-05-08 16:09 56.20521 92.36579 4019 ft 172 kts 296°
2026-05-08 16:09 56.21001 92.34643 4459 ft 172 kts 287°
2026-05-08 16:09 56.21028 92.32489 4860 ft 177 kts 256°
2026-05-08 16:09 56.20385 92.30615 5268 ft 184 kts 225°
2026-05-08 16:10 56.19320 92.29339 5743 ft 184 kts 217°
2026-05-08 16:10 56.18236 92.28155 6159 ft 187 kts 216°
2026-05-08 16:10 56.17126 92.26884 6500 ft 192 kts 221°
2026-05-08 16:10 56.16096 92.25359 6827 ft 197 kts 229°
2026-05-08 16:11 56.15142 92.23557 7268 ft 199 kts 233°
2026-05-08 16:11 56.14195 92.21748 7699 ft 202 kts 230°
2026-05-08 16:11 56.13163 92.19961 8099 ft 209 kts 228°
2026-05-08 16:11 56.12080 92.18239 8502 ft 214 kts 225°
2026-05-08 16:12 56.10900 92.16512 8858 ft 226 kts 223°
2026-05-08 16:12 56.09614 92.14742 9176 ft 237 kts 224°
2026-05-08 16:12 56.08424 92.12685 9583 ft 242 kts 233°
2026-05-08 16:12 56.07416 92.10306 10059 ft 245 kts 237°
2026-05-08 16:13 56.06334 92.07940 10586 ft 250 kts 231°
2026-05-08 16:13 56.05069 92.05739 11203 ft 254 kts 225°
2026-05-08 16:13 56.03679 92.03805 11797 ft 258 kts 220°
2026-05-08 16:13 56.02284 92.01871 12332 ft 257 kts 226°
2026-05-08 16:14 56.01007 91.99629 12885 ft 255 kts 232°
2026-05-08 16:14 55.99860 91.97192 13142 ft 266 kts 234°
2026-05-08 16:14 55.98644 91.94595 13387 ft 279 kts 233°
2026-05-08 16:14 55.97349 91.91942 13680 ft 290 kts 231°
2026-05-08 16:15 55.95940 91.89333 14040 ft 299 kts 228°
2026-05-08 16:15 55.94406 91.86756 14454 ft 305 kts 226°
2026-05-08 16:15 55.92833 91.84199 14791 ft 313 kts 226°
2026-05-08 16:15 55.91188 91.81569 14986 ft 326 kts 225°
2026-05-08 16:16 55.89451 91.78841 15244 ft 336 kts 225°
2026-05-08 16:16 55.87676 91.76103 15562 ft 344 kts 224°
2026-05-08 16:16 55.85839 91.73321 15898 ft 351 kts 224°
2026-05-08 16:16 55.83987 91.70509 16260 ft 355 kts 226°
2026-05-08 16:17 55.82257 91.67387 16630 ft 357 kts 232°
2026-05-08 16:17 55.80727 91.63917 17029 ft 359 kts 239°
2026-05-08 16:17 55.79416 91.60183 17444 ft 360 kts 243°
2026-05-08 16:17 55.78091 91.56396 17874 ft 363 kts 239°
2026-05-08 16:18 55.76541 91.52842 18300 ft 367 kts 233°
2026-05-08 16:18 55.74773 91.49573 18750 ft 371 kts 228°
2026-05-08 16:18 55.72835 91.46538 19209 ft 373 kts 224°
2026-05-08 16:18 55.70783 91.43772 19671 ft 376 kts 219°
2026-05-08 16:19 55.68592 91.41245 20131 ft 378 kts 216°
2026-05-08 16:19 55.66385 91.38747 20592 ft 376 kts 220°
2026-05-08 16:19 55.64341 91.35879 21050 ft 373 kts 226°
2026-05-08 16:19 55.62520 91.32717 21497 ft 370 kts 231°
2026-05-08 16:20 55.60886 91.29216 21930 ft 369 kts 237°
2026-05-08 16:20 55.59314 91.25605 22180 ft 375 kts 234°
2026-05-08 16:20 55.57617 91.22141 22437 ft 382 kts 231°
2026-05-08 16:20 55.55777 91.18734 22718 ft 387 kts 229°
2026-05-08 16:21 55.53874 91.15346 23029 ft 390 kts 230°
2026-05-08 16:21 55.52072 91.11801 23346 ft 391 kts 234°
2026-05-08 16:21 55.50409 91.08003 23677 ft 392 kts 238°
2026-05-08 16:21 55.48900 91.04025 23984 ft 393 kts 241°
2026-05-08 16:22 55.47420 90.99994 24302 ft 395 kts 241°
2026-05-08 16:22 55.45921 90.95898 24615 ft 397 kts 241°
2026-05-08 16:22 55.44424 90.91816 24942 ft 399 kts 241°
2026-05-08 16:22 55.42919 90.87723 25266 ft 401 kts 241°
2026-05-08 16:23 55.41408 90.83619 25572 ft 402 kts 241°
2026-05-08 16:23 55.39903 90.79544 25904 ft 403 kts 241°
2026-05-08 16:23 55.38376 90.75414 26204 ft 404 kts 241°
2026-05-08 16:23 55.36842 90.71272 26527 ft 405 kts 242°
2026-05-08 16:24 55.35315 90.67158 26852 ft 406 kts 242°
2026-05-08 16:24 55.33759 90.62970 27171 ft 407 kts 242°
2026-05-08 16:24 55.32232 90.58866 27486 ft 407 kts 242°
2026-05-08 16:24 55.30676 90.54692 27800 ft 407 kts 242°
2026-05-08 16:25 55.29136 90.50570 28126 ft 407 kts 242°
2026-05-08 16:25 55.27587 90.46436 28447 ft 407 kts 242°
2026-05-08 16:25 55.26031 90.42287 28787 ft 407 kts 242°
2026-05-08 16:25 55.24490 90.38184 29105 ft 407 kts 242°
2026-05-08 16:26 55.22944 90.34069 29432 ft 406 kts 241°
2026-05-08 16:26 55.21391 90.29947 29735 ft 406 kts 241°
2026-05-08 16:26 55.19856 90.25872 30039 ft 405 kts 241°
2026-05-08 16:26 55.18307 90.21770 30366 ft 404 kts 241°
2026-05-08 16:27 55.16759 90.17684 30686 ft 404 kts 241°
2026-05-08 16:27 55.15207 90.13592 31005 ft 402 kts 241°
2026-05-08 16:27 55.13682 90.09578 31315 ft 401 kts 242°
2026-05-08 16:27 55.12155 90.05560 31606 ft 400 kts 241°
2026-05-08 16:28 55.10620 90.01524 31922 ft 398 kts 241°
2026-05-08 16:28 55.09101 89.97543 32235 ft 397 kts 242°
2026-05-08 16:28 55.07572 89.93547 32555 ft 395 kts 242°
2026-05-08 16:28 55.06059 89.89601 32861 ft 392 kts 242°
2026-05-08 16:29 55.04546 89.85651 33173 ft 390 kts 242°
2026-05-08 16:29 55.02993 89.81812 33470 ft 390 kts 239°
2026-05-08 16:29 55.01315 89.78117 33772 ft 389 kts 236°
2026-05-08 16:29 54.99556 89.74514 33879 ft 393 kts 236°
2026-05-08 16:30 54.96025 89.67280 34056 ft 398 kts 236°
2026-05-08 16:30 54.92408 89.59894 34208 ft 404 kts 236°
2026-05-08 16:31 54.88751 89.52451 34336 ft 409 kts 235°
2026-05-08 16:31 54.85055 89.44956 34492 ft 414 kts 236°
2026-05-08 16:32 54.81312 89.37384 34661 ft 418 kts 235°
2026-05-08 16:32 54.77521 89.29740 34800 ft 422 kts 234°
2026-05-08 16:33 54.73696 89.22053 34859 ft 425 kts 234°
2026-05-08 16:33 54.69833 89.14314 35038 ft 428 kts 234°
2026-05-08 16:34 54.65942 89.06545 35139 ft 429 kts 234°
2026-05-08 16:34 54.62050 88.98796 35269 ft 430 kts 234°
2026-05-08 16:35 54.58139 88.91032 35372 ft 430 kts 234°
2026-05-08 16:35 54.54217 88.83266 35508 ft 430 kts 234°
2026-05-08 16:36 54.50319 88.75577 35627 ft 430 kts 234°
2026-05-08 16:36 54.46625 88.67529 35754 ft 427 kts 240°
2026-05-08 16:37 54.43463 88.58997 35920 ft 425 kts 244°
2026-05-08 16:37 54.40414 88.50366 35966 ft 426 kts 244°
2026-05-08 16:38 54.37346 88.41702 35992 ft 426 kts 244°
2026-05-08 16:38 54.34269 88.33043 35999 ft 425 kts 243°
2026-05-08 16:39 54.31202 88.24449 35970 ft 425 kts 243°
2026-05-08 16:39 54.28125 88.15849 35982 ft 424 kts 244°
2026-05-08 16:40 54.25069 88.07337 36014 ft 424 kts 244°
2026-05-08 16:40 54.21970 87.98732 35985 ft 425 kts 244°
2026-05-08 16:41 54.18888 87.90203 36024 ft 424 kts 244°
2026-05-08 16:42 54.14252 87.77428 36007 ft 424 kts 244°
2026-05-08 16:42 54.11159 87.68951 35987 ft 423 kts 244°
2026-05-08 16:43 54.08069 87.60511 35978 ft 423 kts 244°
2026-05-08 16:43 54.04953 87.52035 35994 ft 423 kts 244°
2026-05-08 16:44 54.01850 87.43619 35976 ft 423 kts 244°
2026-05-08 16:44 53.98739 87.35194 35991 ft 422 kts 244°
2026-05-08 16:45 53.95619 87.26781 35984 ft 421 kts 244°
2026-05-08 16:45 53.92512 87.18416 35990 ft 421 kts 244°
2026-05-08 16:46 53.89408 87.10091 36005 ft 419 kts 244°
2026-05-08 16:46 53.86290 87.01760 36003 ft 419 kts 244°
2026-05-08 16:47 53.83457 86.93259 36002 ft 414 kts 250°
2026-05-08 16:47 53.81209 86.84396 36019 ft 410 kts 255°
2026-05-08 16:48 53.79560 86.75254 36011 ft 405 kts 261°
2026-05-08 16:48 53.78392 86.66000 36032 ft 405 kts 263°
2026-05-08 16:49 53.77265 86.56714 36001 ft 405 kts 263°
2026-05-08 16:49 53.76133 86.47415 36012 ft 405 kts 263°
2026-05-08 16:50 53.74995 86.38135 35996 ft 405 kts 263°
2026-05-08 16:50 53.73851 86.28860 36005 ft 405 kts 262°
2026-05-08 16:51 53.72698 86.19598 35991 ft 404 kts 262°
2026-05-08 16:51 53.71543 86.10375 35996 ft 403 kts 262°
2026-05-08 16:52 53.70372 86.01126 35989 ft 403 kts 262°
2026-05-08 16:52 53.69206 85.91956 35988 ft 403 kts 262°
2026-05-08 16:53 53.67437 85.78161 35985 ft 403 kts 262°
2026-05-08 16:53 53.66246 85.68952 35981 ft 404 kts 262°
2026-05-08 16:54 53.65047 85.59718 35982 ft 404 kts 262°
2026-05-08 16:54 53.63846 85.50532 35987 ft 404 kts 262°
2026-05-08 16:55 53.62632 85.41315 35980 ft 404 kts 262°
2026-05-08 16:55 53.61417 85.32139 35976 ft 404 kts 261°
2026-05-08 16:56 53.60187 85.22929 35980 ft 405 kts 261°
2026-05-08 16:56 53.58954 85.13729 35975 ft 404 kts 261°
2026-05-08 16:57 53.57716 85.04540 35969 ft 404 kts 261°
2026-05-08 16:57 53.56470 84.95347 35963 ft 404 kts 261°
2026-05-08 16:58 53.55225 84.86193 35967 ft 405 kts 261°
2026-05-08 16:58 53.53968 84.77014 35956 ft 405 kts 261°
2026-05-08 16:59 53.52702 84.67828 35978 ft 405 kts 261°
2026-05-08 16:59 53.51429 84.58657 35971 ft 405 kts 260°
2026-05-08 17:00 53.50153 84.49519 35979 ft 405 kts 260°
2026-05-08 17:00 53.48862 84.40343 35969 ft 405 kts 261°
2026-05-08 17:01 53.47567 84.31181 35956 ft 405 kts 259°
2026-05-08 17:01 53.46267 84.22031 35971 ft 405 kts 259°
2026-05-08 17:02 53.44963 84.12917 35980 ft 404 kts 259°
2026-05-08 17:02 53.43646 84.03754 35971 ft 405 kts 259°
2026-05-08 17:03 53.42328 83.94630 35989 ft 405 kts 259°
2026-05-08 17:03 53.40995 83.85460 36002 ft 405 kts 259°
2026-05-08 17:04 53.39658 83.76331 36017 ft 405 kts 259°
2026-05-08 17:04 53.38318 83.67205 35992 ft 405 kts 259°
2026-05-08 17:05 53.36964 83.58073 35986 ft 405 kts 259°
2026-05-08 17:05 53.35780 83.48901 35992 ft 405 kts 262°
2026-05-08 17:06 53.34717 83.39703 35994 ft 404 kts 262°
2026-05-08 17:06 53.33651 83.30524 36009 ft 405 kts 261°
2026-05-08 17:07 53.32571 83.21290 35993 ft 405 kts 261°
2026-05-08 17:07 53.31437 83.12122 35983 ft 407 kts 259°
2026-05-08 17:08 53.29811 83.03090 35989 ft 409 kts 253°
2026-05-08 17:08 53.27618 82.94324 35974 ft 411 kts 248°
2026-05-08 17:09 53.24883 82.85967 35973 ft 413 kts 243°
2026-05-08 17:09 53.21957 82.77786 35976 ft 412 kts 243°
2026-05-08 17:10 53.18971 82.69640 35956 ft 412 kts 243°
2026-05-08 17:10 53.15974 82.61503 35968 ft 413 kts 243°
2026-05-08 17:11 53.12992 82.53424 35968 ft 413 kts 243°
2026-05-08 17:11 53.09998 82.45348 35954 ft 412 kts 243°
2026-05-08 17:12 53.06993 82.37256 35959 ft 411 kts 243°
2026-05-08 17:12 53.03999 82.29224 35956 ft 411 kts 242°
2026-05-08 17:13 53.00982 82.21163 35965 ft 411 kts 242°
2026-05-08 17:13 52.97969 82.13129 35965 ft 411 kts 242°
2026-05-08 17:14 52.94965 82.05145 35953 ft 410 kts 242°
2026-05-08 17:14 52.91957 81.97179 35964 ft 409 kts 242°
2026-05-08 17:15 52.88945 81.89216 35954 ft 408 kts 242°
2026-05-08 17:15 52.85930 81.81277 35962 ft 408 kts 242°
2026-05-08 17:16 52.82917 81.73377 35958 ft 409 kts 242°
2026-05-08 17:16 52.79881 81.65471 35964 ft 407 kts 242°
2026-05-08 17:17 52.76855 81.57602 35948 ft 408 kts 241°
2026-05-08 17:17 52.73815 81.49723 35944 ft 409 kts 242°
2026-05-08 17:18 52.70781 81.41874 35955 ft 408 kts 241°
2026-05-08 17:18 52.67734 81.34024 35955 ft 408 kts 241°
2026-05-08 17:19 52.64680 81.26168 35944 ft 408 kts 240°
2026-05-08 17:19 52.61639 81.18377 35945 ft 407 kts 240°
2026-05-08 17:20 52.58581 81.10558 35949 ft 407 kts 240°
2026-05-08 17:20 52.55522 81.02774 35952 ft 406 kts 240°
2026-05-08 17:21 52.52469 80.95021 35950 ft 407 kts 240°
2026-05-08 17:21 52.49409 80.87273 35945 ft 406 kts 241°
2026-05-08 17:22 52.46344 80.79538 35954 ft 406 kts 240°
2026-05-08 17:22 52.43268 80.71795 35941 ft 406 kts 240°
2026-05-08 17:23 52.40208 80.64123 35952 ft 405 kts 240°
2026-05-08 17:23 52.37134 80.56432 35946 ft 406 kts 240°
2026-05-08 17:24 52.34061 80.48766 35941 ft 405 kts 240°
2026-05-08 17:24 52.30965 80.41074 35944 ft 405 kts 240°
2026-05-08 17:25 52.27866 80.33393 35945 ft 406 kts 240°
2026-05-08 17:25 52.24778 80.25760 35944 ft 406 kts 240°
2026-05-08 17:26 52.21681 80.18136 35950 ft 404 kts 240°
2026-05-08 17:26 52.18567 80.10474 35937 ft 405 kts 240°
2026-05-08 17:27 52.15463 80.02881 35938 ft 404 kts 240°
2026-05-08 17:27 52.12359 79.95297 35951 ft 404 kts 240°
2026-05-08 17:28 52.09244 79.87708 35931 ft 405 kts 240°
2026-05-08 17:28 52.06130 79.80141 35926 ft 404 kts 239°
2026-05-08 17:29 52.03016 79.72609 35916 ft 405 kts 240°
2026-05-08 17:29 51.99900 79.65089 35936 ft 403 kts 240°
2026-05-08 17:30 51.96773 79.57558 35959 ft 404 kts 239°
2026-05-08 17:30 51.93640 79.50032 35928 ft 404 kts 240°
2026-05-08 17:31 51.90522 79.42570 35933 ft 403 kts 240°
2026-05-08 17:31 51.87442 79.35010 35930 ft 401 kts 243°
2026-05-08 17:32 51.85004 79.27017 35921 ft 398 kts 250°
2026-05-08 17:32 51.83335 79.18488 35926 ft 397 kts 258°
2026-05-08 17:33 51.82490 79.09780 35922 ft 396 kts 265°
2026-05-08 17:33 51.82077 79.00922 35923 ft 395 kts 265°
2026-05-08 17:34 51.81679 78.92096 35921 ft 396 kts 265°
2026-05-08 17:34 51.81277 78.83267 35921 ft 396 kts 265°
2026-05-08 17:35 51.80867 78.74423 35923 ft 396 kts 265°
2026-05-08 17:35 51.80454 78.65633 35922 ft 395 kts 265°
2026-05-08 17:36 51.80033 78.56805 35933 ft 394 kts 265°
2026-05-08 17:36 51.79609 78.48033 35930 ft 394 kts 265°
2026-05-08 17:37 51.79176 78.39198 35933 ft 396 kts 265°
2026-05-08 17:37 51.78737 78.30425 35926 ft 394 kts 264°
2026-05-08 17:38 51.78288 78.21586 35927 ft 396 kts 265°
2026-05-08 17:38 51.77835 78.12761 35928 ft 396 kts 264°
2026-05-08 17:39 51.77377 78.03949 35939 ft 397 kts 264°
2026-05-08 17:39 51.76910 77.95100 35927 ft 395 kts 264°
2026-05-08 17:40 51.76437 77.86310 35913 ft 395 kts 264°
2026-05-08 17:40 51.75953 77.77542 35922 ft 396 kts 264°
2026-05-08 17:41 51.75462 77.68740 35925 ft 395 kts 264°
2026-05-08 17:41 51.74961 77.59906 35915 ft 396 kts 264°
2026-05-08 17:42 51.74461 77.51108 35910 ft 396 kts 264°
2026-05-08 17:42 51.73949 77.42287 35906 ft 396 kts 264°
2026-05-08 17:43 51.73430 77.33440 35921 ft 396 kts 263°
2026-05-08 17:43 51.72908 77.24659 35917 ft 395 kts 263°
2026-05-08 17:44 51.72375 77.15821 35911 ft 395 kts 263°
2026-05-08 17:44 51.71843 77.07078 35912 ft 395 kts 263°
2026-05-08 17:45 51.71298 76.98286 35900 ft 394 kts 263°
2026-05-08 17:45 51.70749 76.89523 35904 ft 396 kts 263°
2026-05-08 17:46 51.70190 76.80731 35907 ft 396 kts 263°
2026-05-08 17:46 51.69626 76.71940 35905 ft 396 kts 263°
2026-05-08 17:47 51.69053 76.63140 35909 ft 396 kts 263°
2026-05-08 17:47 51.68573 76.55838 35907 ft 397 kts 263°
2026-05-08 17:48 51.67893 76.45583 35906 ft 397 kts 263°
2026-05-08 17:48 51.67303 76.36789 35914 ft 397 kts 263°
2026-05-08 17:49 51.66705 76.27961 35917 ft 397 kts 262°
2026-05-08 17:49 51.66100 76.19177 35908 ft 397 kts 262°
2026-05-08 17:50 51.65493 76.10390 35900 ft 397 kts 262°
2026-05-08 17:50 51.64872 76.01553 35900 ft 397 kts 262°
2026-05-08 17:51 51.64251 75.92806 35911 ft 397 kts 262°
2026-05-08 17:51 51.63617 75.83974 35914 ft 397 kts 262°
2026-05-08 17:52 51.62981 75.75168 35913 ft 399 kts 262°
2026-05-08 17:53 51.62013 75.61972 35910 ft 399 kts 262°
2026-05-08 17:53 51.61354 75.53109 35909 ft 398 kts 261°
2026-05-08 17:54 51.60697 75.44329 35910 ft 399 kts 262°
2026-05-08 17:54 51.60023 75.35466 35910 ft 399 kts 262°
2026-05-08 17:55 51.59317 75.26672 35906 ft 398 kts 259°
2026-05-08 17:55 51.58189 75.18019 35909 ft 397 kts 254°
2026-05-08 17:56 51.56646 75.09525 35903 ft 398 kts 252°
2026-05-08 17:56 51.55079 75.01060 35903 ft 398 kts 252°
2026-05-08 17:57 51.53507 74.92617 35899 ft 386 kts 252°
2026-05-08 17:57 51.52003 74.84579 35902 ft 375 kts 252°
2026-05-08 17:58 51.50503 74.76614 35903 ft 374 kts 252°
2026-05-08 17:58 51.49000 74.68665 35915 ft 373 kts 252°
2026-05-08 17:59 51.47497 74.60759 35915 ft 374 kts 252°
2026-05-08 17:59 51.45976 74.52779 35919 ft 374 kts 252°
2026-05-08 18:00 51.44460 74.44865 35920 ft 374 kts 252°
2026-05-08 18:00 51.42167 74.32951 35920 ft 375 kts 251°
2026-05-08 18:01 51.40648 74.25105 35742 ft 369 kts 251°
2026-05-08 18:01 51.39119 74.17242 35737 ft 368 kts 251°
2026-05-08 18:02 51.38369 74.13388 35599 ft 367 kts 251°
2026-05-08 18:02 51.37865 74.10802 35563 ft 364 kts 251°
2026-05-08 18:02 51.36868 74.05702 35194 ft 360 kts 251°
2026-05-08 18:02 51.36123 74.01897 34657 ft 361 kts 251°
2026-05-08 18:03 51.35387 73.98130 34497 ft 350 kts 250°
2026-05-08 18:03 51.34661 73.94443 34258 ft 348 kts 250°
2026-05-08 18:03 51.33939 73.90796 33707 ft 350 kts 250°
2026-05-08 18:03 51.33207 73.87103 33167 ft 347 kts 251°
2026-05-08 18:04 51.32478 73.83422 33004 ft 347 kts 251°
2026-05-08 18:04 51.31755 73.79771 32860 ft 349 kts 250°
2026-05-08 18:04 51.31026 73.76109 32689 ft 348 kts 251°
2026-05-08 18:04 51.30291 73.72418 32530 ft 347 kts 251°
2026-05-08 18:05 51.29568 73.68789 32368 ft 346 kts 251°
2026-05-08 18:05 51.28842 73.65163 32214 ft 345 kts 250°
2026-05-08 18:05 51.28114 73.61529 32037 ft 344 kts 251°
2026-05-08 18:05 51.27381 73.57873 31800 ft 343 kts 251°
2026-05-08 18:06 51.26661 73.54288 31593 ft 341 kts 251°
2026-05-08 18:06 51.25944 73.50720 31376 ft 340 kts 251°
2026-05-08 18:06 51.25220 73.47137 31164 ft 338 kts 251°
2026-05-08 18:06 51.24501 73.43578 30961 ft 336 kts 251°
2026-05-08 18:07 51.23051 73.36428 30933 ft 346 kts 251°
2026-05-08 18:07 51.21586 73.29217 30433 ft 342 kts 251°
2026-05-08 18:08 51.20852 73.25615 29955 ft 339 kts 251°
2026-05-08 18:08 51.20121 73.22028 29689 ft 341 kts 251°
2026-05-08 18:08 51.19391 73.18456 29406 ft 340 kts 251°
2026-05-08 18:08 51.18661 73.14892 29119 ft 339 kts 251°
2026-05-08 18:09 51.17942 73.11386 28844 ft 338 kts 251°
2026-05-08 18:09 51.17210 73.07819 28558 ft 336 kts 251°
2026-05-08 18:09 51.16489 73.04326 28342 ft 336 kts 251°
2026-05-08 18:09 51.15760 73.00795 28138 ft 335 kts 251°
2026-05-08 18:10 51.15037 72.97302 27937 ft 334 kts 251°
2026-05-08 18:10 51.14310 72.93765 27726 ft 333 kts 251°
2026-05-08 18:10 51.13602 72.90300 27492 ft 332 kts 251°
2026-05-08 18:10 51.12892 72.86828 27180 ft 331 kts 251°
2026-05-08 18:11 51.12182 72.83360 26872 ft 329 kts 251°
2026-05-08 18:11 51.11480 72.79931 26561 ft 327 kts 251°
2026-05-08 18:11 51.10776 72.76506 26249 ft 326 kts 251°
2026-05-08 18:11 51.10079 72.73122 25896 ft 324 kts 251°
2026-05-08 18:12 51.09383 72.69741 25537 ft 323 kts 251°
2026-05-08 18:12 51.08682 72.66345 25176 ft 318 kts 251°
2026-05-08 18:12 51.08000 72.63042 24729 ft 315 kts 251°
2026-05-08 18:12 51.07322 72.59768 24263 ft 313 kts 251°
2026-05-08 18:13 51.06643 72.56496 23826 ft 311 kts 251°
2026-05-08 18:13 51.05970 72.53256 23411 ft 311 kts 251°
2026-05-08 18:13 51.05300 72.50030 23007 ft 310 kts 251°
2026-05-08 18:13 51.04624 72.46785 22598 ft 307 kts 251°
2026-05-08 18:14 51.03954 72.43572 22229 ft 305 kts 251°
2026-05-08 18:14 51.03293 72.40413 21862 ft 303 kts 251°
2026-05-08 18:14 51.02633 72.37259 21503 ft 300 kts 251°
2026-05-08 18:14 51.01985 72.34171 21160 ft 299 kts 250°
2026-05-08 18:15 51.01325 72.31034 20799 ft 298 kts 250°
2026-05-08 18:15 51.00671 72.27927 20428 ft 295 kts 250°
2026-05-08 18:15 51.00028 72.24872 20077 ft 293 kts 250°
2026-05-08 18:15 50.99386 72.21827 19737 ft 291 kts 250°
2026-05-08 18:16 50.98750 72.18814 19485 ft 292 kts 250°
2026-05-08 18:16 50.98097 72.15732 19229 ft 292 kts 250°
2026-05-08 18:16 50.97463 72.12740 18976 ft 289 kts 250°
2026-05-08 18:16 50.96818 72.09701 18716 ft 287 kts 250°
2026-05-08 18:17 50.96176 72.06769 18483 ft 285 kts 247°
2026-05-08 18:17 50.95314 72.03935 18231 ft 284 kts 240°
2026-05-08 18:17 50.94231 72.01334 17999 ft 285 kts 233°
2026-05-08 18:17 50.92950 71.98952 17776 ft 284 kts 229°
2026-05-08 18:18 50.91614 71.96638 17531 ft 284 kts 229°
2026-05-08 18:18 50.90288 71.94360 17269 ft 283 kts 229°
2026-05-08 18:18 50.88967 71.92092 16927 ft 283 kts 229°
2026-05-08 18:18 50.87621 71.89784 16451 ft 285 kts 229°
2026-05-08 18:19 50.86278 71.87487 15911 ft 289 kts 229°
2026-05-08 18:19 50.84927 71.85175 15509 ft 289 kts 229°
2026-05-08 18:19 50.83567 71.82855 15061 ft 289 kts 229°
2026-05-08 18:19 50.82214 71.80544 14656 ft 286 kts 229°
2026-05-08 18:20 50.80863 71.78243 14261 ft 281 kts 229°
2026-05-08 18:20 50.79544 71.75995 13902 ft 281 kts 229°
2026-05-08 18:20 50.78231 71.73760 13567 ft 279 kts 229°
2026-05-08 18:20 50.76910 71.71513 13200 ft 277 kts 228°
2026-05-08 18:21 50.75604 71.69296 12833 ft 275 kts 228°
2026-05-08 18:21 50.74318 71.67120 12456 ft 273 kts 229°
2026-05-08 18:21 50.73028 71.64934 12056 ft 272 kts 229°
2026-05-08 18:21 50.71754 71.62775 11708 ft 269 kts 229°
2026-05-08 18:22 50.70496 71.60645 11419 ft 265 kts 229°
2026-05-08 18:22 50.69235 71.58513 11075 ft 264 kts 229°
2026-05-08 18:22 50.68005 71.56435 10799 ft 261 kts 229°
2026-05-08 18:22 50.66767 71.54346 10485 ft 257 kts 229°
2026-05-08 18:23 50.65564 71.52319 10217 ft 253 kts 229°
2026-05-08 18:23 50.64381 71.50325 9862 ft 251 kts 229°
2026-05-08 18:23 50.63235 71.48229 9569 ft 250 kts 239°
2026-05-08 18:23 50.62674 71.45673 9327 ft 251 kts 263°
2026-05-08 18:24 50.62832 71.42956 9163 ft 257 kts 284°
2026-05-08 18:24 50.63680 71.40471 8979 ft 262 kts 302°
2026-05-08 18:24 50.64765 71.38205 8787 ft 255 kts 302°
2026-05-08 18:24 50.65824 71.36010 8574 ft 247 kts 302°
2026-05-08 18:25 50.66896 71.33941 8390 ft 243 kts 309°
2026-05-08 18:25 50.68179 71.32256 8205 ft 242 kts 321°
2026-05-08 18:25 50.69643 71.30936 7922 ft 241 kts 327°
2026-05-08 18:25 50.71108 71.29748 7612 ft 239 kts 328°
2026-05-08 18:26 50.72592 71.28559 7314 ft 237 kts 328°
2026-05-08 18:26 50.74049 71.27381 6973 ft 237 kts 328°
2026-05-08 18:26 50.75503 71.26199 6612 ft 234 kts 328°
2026-05-08 18:26 50.76937 71.25027 6203 ft 229 kts 329°
2026-05-08 18:27 50.78330 71.23885 5794 ft 225 kts 329°
2026-05-08 18:27 50.79241 71.23137 5511 ft 223 kts 329°
2026-05-08 18:27 50.81045 71.21656 4946 ft 216 kts 329°
2026-05-08 18:27 50.82338 71.20594 4525 ft 204 kts 329°
2026-05-08 18:28 50.83637 71.19830 4196 ft 200 kts 349°
2026-05-08 18:28 50.84999 71.20126 3805 ft 199 kts 19°
2026-05-08 18:28 50.86084 71.21338 3701 ft 181 kts 40°
2026-05-08 18:28 50.86951 71.22705 3706 ft 172 kts 43°
2026-05-08 18:29 50.87778 71.24044 3700 ft 169 kts 43°
2026-05-08 18:29 50.88607 71.25368 3763 ft 170 kts 42°
2026-05-08 18:29 50.89436 71.26677 3775 ft 164 kts 41°
2026-05-08 18:29 50.90239 71.27935 3784 ft 162 kts 41°
2026-05-08 18:30 50.91042 71.29178 3792 ft 161 kts 41°
2026-05-08 18:30 50.91839 71.30414 3797 ft 161 kts 41°
2026-05-08 18:30 50.92649 71.31667 3797 ft 161 kts 41°
2026-05-08 18:30 50.93436 71.32935 3798 ft 162 kts 44°
2026-05-08 18:31 50.94200 71.34229 3650 ft 161 kts 42°
2026-05-08 18:31 50.94998 71.35452 3453 ft 159 kts 42°
2026-05-08 18:31 50.95796 71.36684 3039 ft 160 kts 38°
2026-05-08 18:31 50.96629 71.37810 2635 ft 156 kts 40°
2026-05-08 18:32 50.97405 71.39009 2304 ft 157 kts 44°
2026-05-08 18:32 50.98161 71.40237 1939 ft 157 kts 45°
2026-05-08 18:32 50.98943 71.41418 1574 ft 154 kts 40°
2026-05-08 18:32 50.99714 71.42613 1443 ft 155 kts 48°
2026-05-08 18:33 51.00468 71.43816 1355 ft 155 kts 44°
2026-05-08 18:33 51.01248 71.45016 1190 ft 154 kts 45°
2026-05-08 18:33 51.01957 71.46132 1167 ft 124 kts 44°
2026-05-08 18:33 51.02448 71.46902 1167 ft 75 kts 45°
2026-05-08 18:34 51.02728 71.47350 1164 ft 50 kts 44°
2026-05-08 18:34 51.02965 71.47729 1164 ft 46 kts 44°
2026-05-08 18:34 51.03156 71.48027 1163 ft 28 kts 45°
2026-05-08 18:34 51.03270 71.48202 1163 ft 17 kts 42°
2026-05-08 18:35 51.03336 71.48305 1164 ft 7 kts 45°
2026-05-08 18:35 51.03388 71.48325 1163 ft 8 kts 335°
2026-05-08 18:35 51.03426 71.48249 1164 ft 9 kts 281°
2026-05-08 18:35 51.03428 71.48136 1164 ft 11 kts 269°
2026-05-08 18:36 51.03427 71.48103 1164 ft 0 kts 268°
2026-05-08 18:37 51.03427 71.48101 1164 ft 0 kts 268°
2026-05-08 18:37 51.03427 71.48084 1164 ft 3 kts 268°
2026-05-08 18:37 51.03425 71.48033 1163 ft 6 kts 261°
2026-05-08 18:37 51.03394 71.47937 1164 ft 12 kts 225°
2026-05-08 18:38 51.03318 71.47820 1163 ft 17 kts 225°
2026-05-08 18:38 51.03221 71.47671 1164 ft 21 kts 223°
2026-05-08 18:38 51.03104 71.47487 1163 ft 25 kts 225°
2026-05-08 18:38 51.02973 71.47281 1165 ft 27 kts 224°
2026-05-08 18:39 51.02836 71.47067 1167 ft 27 kts 224°
2026-05-08 18:39 51.02703 71.46860 1167 ft 25 kts 224°
2026-05-08 18:39 51.02652 71.46774 1168 ft 6 kts 241°
2026-05-08 18:39 51.02651 71.46717 1169 ft 4 kts 291°
2026-05-08 18:40 51.02676 71.46667 1170 ft 6 kts 311°
2026-05-08 18:40 51.02705 71.46572 1170 ft 13 kts 266°
2026-05-08 18:40 51.02684 71.46414 1170 ft 15 kts 233°
2026-05-08 18:40 51.02608 71.46289 1168 ft 16 kts 224°
2026-05-08 18:41 51.02546 71.46189 1167 ft 7 kts 225°
2026-05-08 18:41 51.02536 71.46111 1167 ft 8 kts 295°
2026-05-08 18:41 51.02578 71.46087 1167 ft 3 kts
2026-05-08 18:41 51.02599 71.46085 1167 ft 1 kts 358°
2026-05-08 18:42 51.02610 71.46085 1167 ft 0 kts 358°
2026-05-08 18:42 51.02613 71.46085 1167 ft 0 kts 357°
2026-05-08 18:43 51.02614 71.46085 1167 ft 0 kts 357°
2026-05-08 18:43 51.02617 71.46085 1167 ft 0 kts 358°
2026-05-08 18:43 51.02612 71.46085 1167 ft 0 kts 357°